Meteo Giornale » Osservazioni meteo Italia » Milano-Linate

ore: 22:50 - Osservazioni Meteo Milano-Linate
Lat. 45° 26' N Lon. 9° 17' E Alt. 107 metri s.l.m.

poco_nuvoloso Europe/Rome

17 °C

Poco Nuvoloso

Temp. 24 Ore

14 °C

22 °C

Sud

7.4 Km/h

Dew point 9 °C

Umidità 59 %

Visibilità  10 Km

Il sole sorge alle ore 05:37

Il sole tramonta alle ore 21:03

Data e Ora Cielo e Fenomeni T °C DP °C Um. % Pres. hPa Vis. km Vento km/h
Oggi h: 22:50 poco_nuvoloso Poco Nuvoloso 17 9 59 1019 10 S 7.4
Oggi h: 22:20 poco_nuvoloso Poco Nuvoloso 17 8 55 1019 10 N 3.7
Oggi h: 21:50 sereno Sereno 17 9 59 1019 10 N 5.5
Oggi h: 21:20 sereno Sereno 18 8 51 1019 10 N 5.5
Oggi h: 20:50 sereno Sereno 18 8 51 1018 10 S 9.3
Oggi h: 20:20 sereno Sereno 20 7 42 1018 10 S 9.3
Oggi h: 19:50 sereno Sereno 21 7 40 1019 10 S/SE 11.1
Oggi h: 19:20 poco_nuvoloso Poco Nuvoloso 21 8 43 1019 10 S 11.1
Oggi h: 18:20 nuvoloso Nuvoloso 21 7 40 1019 10 S/SE 11.1
Oggi h: 17:50 nuvoloso Nuvoloso 21 6 37 1019 10 S/SO 9.3
Oggi h: 16:50 nuvoloso Nuvoloso 22 6 35 1019 10 S/SO 11.1
Oggi h: 16:20 nuvoloso Nuvoloso 21 6 37 1020 10 S 9.3
Oggi h: 15:50 nuvoloso Nuvoloso 22 8 40 1020 10 S 7.4
Oggi h: 14:50 nuvoloso Nuvoloso 21 9 46 1021 10 E/SE 13
Oggi h: 14:20 nuvoloso Nuvoloso 21 11 52 1021 10 S/SE 16.7
Oggi h: 13:50 nuvoloso Nuvoloso 20 9 49 1021 10 SE 9.3
Oggi h: 13:20 nuvoloso Nuvoloso 20 10 52 1022 10 SE 20.3
Oggi h: 12:50 poco_nuvoloso Poco Nuvoloso 21 10 49 1022 10 S/SE 16.7
Oggi h: 12:20 nuvoloso Nuvoloso 21 9 46 1022 10 E/SE 20.3
Oggi h: 11:50 poco_nuvoloso Poco Nuvoloso 20 11 56 1022 10 E/SE 16.7
Oggi h: 11:20 poco_nuvoloso Poco Nuvoloso 19 10 55 1022 10 SE 16.7
Oggi h: 10:50 poco_nuvoloso Poco Nuvoloso 19 9 52 1022 10 SE 16.7
Oggi h: 10:20 nuvoloso Nuvoloso 18 10 59 1022 10 E/SE 14.8
Oggi h: 09:50 nuvoloso Nuvoloso 17 11 67 1022 10 E 16.7
Oggi h: 09:20 nuvoloso Nuvoloso 17 11 67 1023 10 E 22.2
Oggi h: 08:50 nuvoloso Nuvoloso 17 12 72 1022 10 E 16.7
Oggi h: 08:20 poco_nuvoloso Poco Nuvoloso 16 12 77 1022 10 E 18.5
Oggi h: 07:50 poco_nuvoloso Poco Nuvoloso 15 12 82 1022 10 E 18.5
Oggi h: 07:20 sereno Sereno 15 11 76 1022 10 E 14.8
Oggi h: 06:50 sereno Sereno 15 12 82 1022 10 E 13
Oggi h: 06:20 sereno Sereno 14 11 82 1021 10 E 16.7
Oggi h: 05:50 sereno Sereno 14 11 82 1021 10 E 14.8
Oggi h: 05:20 poco_nuvoloso Poco Nuvoloso 15 11 76 1021 10 E/SE 25.9
Oggi h: 04:50 nuvoloso Nuvoloso 15 11 76 1021 10 E/SE 22.2
Oggi h: 04:20 molto_nuvoloso Molto Nuvoloso 16 12 77 1021 10 E/SE 27.8
Oggi h: 03:50 poco_nuvoloso Poco Nuvoloso 16 12 77 1021 10 E/SE 18.5
Oggi h: 03:20 molto_nuvoloso Molto Nuvoloso 17 11 67 1020 10 E 22.2
Oggi h: 02:50 molto_nuvoloso Molto Nuvoloso 18 11 63 1020 10 E/SE 20.3
Oggi h: 02:20 poco_nuvoloso Poco Nuvoloso 16 9 63 1020 10 N 5.5
Oggi h: 01:50 sereno Sereno 18 8 51 1020 10 SE 13
Oggi h: 01:20 sereno Sereno 18 7 48 1019 10 N 5.5
Oggi h: 00:50 sereno Sereno 19 8 48 1019 10 N 3.7
Oggi h: 00:20 sereno Sereno 19 7 45 1019 10 N/NO 7.4
Ieri h: 23:50 sereno Sereno 19 8 48 1019 10 O/NO 7.4